[[{"header":{"parameterUnit":"m.s-1","parameterCategory":1,"la1":30.2991,"la2":30.254,"lo1":-89.0895,"lo2":-89.0444,"dy":0.0017,"dx":0.0017,"nx":28,"ny":28,"refTime":"2025-05-20T21:00:00:Z","depth":0,"parameterNumber":2,"parameterNumberName":"U-component_of_WINDS"},"data":[0,0,0,0,0,0,0,0,0,0,0,0,0,0,0,0,0,0,0,0,0,0,0,0,0,0,0,0,0,0,0,0,0,0,0,0,0,0,0,0,0,0,0,0,0,0,0,0,0,0,0,0,0,0,0,0,0,0,4.9223,4.9224,0,4.9351,4.9353,4.9354,4.9324,4.9322,4.9319,4.9317,4.9448,4.9453,4.9459,0,0,0,0,0,0,0,0,0,0,0,0,0,4.8948,4.8953,4.9222,4.9224,4.9226,4.9351,4.9353,4.9355,4.9324,4.9321,4.9318,4.9316,4.9446,4.9453,4.946,0,0,0,0,0,0,0,0,0,0,0,0,0,4.9071,4.8955,4.9222,4.9226,4.9227,4.9351,4.9353,4.9355,4.9325,4.9321,4.9318,4.9314,4.9444,4.9452,4.9461,4.9588,0,0,4.9487,4.9491,0,0,0,0,0,0,0,0,4.9064,4.9081,4.9224,4.9226,4.9228,4.9318,4.9304,4.9433,4.9326,4.9288,4.9317,4.9312,4.9407,4.9419,4.9451,4.9594,4.96,4.9488,4.9493,4.9497,4.9499,0,0,0,0,0,0,0,4.9056,4.9076,4.9273,4.9226,4.9228,4.922,4.9234,4.9328,4.9367,4.9291,4.9289,4.9305,4.9408,4.9443,4.9454,4.9602,4.9488,4.9495,4.9501,4.9504,4.9853,4.9856,0,0,0,0,0,0,4.9046,4.9069,4.9269,4.9277,4.9135,4.9228,4.9243,4.9293,4.9366,4.9373,4.9308,4.9303,4.943,4.9444,4.9458,4.961,4.9497,4.9505,4.951,4.9849,4.9854,4.9858,0,0,0,0,0,0,4.904,4.9064,4.9264,4.9173,4.9197,4.9237,4.9293,4.9297,4.9332,4.9378,4.9385,4.9337,4.9427,4.9446,4.9555,4.9614,4.9509,4.9517,4.9844,4.985,4.9856,4.9915,0,0,0,0,0,0,4.9032,4.9062,4.9111,4.9174,4.9202,4.936,4.9296,4.9302,4.9347,4.9342,4.9407,4.9414,4.9426,4.9543,4.9564,4.9624,4.9523,4.9839,4.9847,4.9854,4.9908,4.9923,4.9935,0,0,0,0,0,4.9023,4.9124,4.9114,4.9138,4.9265,4.9363,4.9379,4.9391,4.9352,4.9401,4.9431,4.9412,4.9605,4.9554,4.9578,4.9641,4.9835,4.9844,4.9853,4.9902,4.992,4.9935,0,0,0,0,0,0,4.9067,4.9132,4.9122,4.9246,4.93,4.9358,4.942,4.941,4.9475,4.9467,4.9478,4.9493,4.9604,4.9634,4.9576,4.9767,4.9714,4.9728,4.9743,4.976,4.9774,4.9763,4.9531,0,0,0,0,0,4.9091,4.9166,4.9219,4.9323,4.935,4.9381,4.9424,4.9429,4.9484,4.9506,4.9544,4.9598,4.967,4.9717,4.9787,4.9913,4.9925,4.9969,4.9982,4.9993,5.0004,5.0071,5.0089,4.9888,4.9888,4.9888,0,0,4.9142,4.9187,4.9233,4.9333,4.9375,4.9451,4.94,4.9483,4.9539,4.9519,4.9623,4.9653,4.9714,4.9831,4.9885,4.986,5.0063,5.0004,5.0013,5.0018,5.0082,5.0101,5.0118,4.9894,4.9893,4.9892,0,0,4.9272,4.9315,4.9405,4.9448,4.9512,4.9531,4.9553,4.9613,4.9632,4.9737,4.9723,4.9789,4.9915,4.9957,4.9996,5.0142,5.0126,5.0164,5.0233,5.0298,5.0314,5.0328,5.0377,5.0395,5.0176,5.0176,5.0176,0,4.9327,4.9442,4.9453,4.9537,4.9581,4.9566,4.9656,4.9697,4.978,4.981,4.9781,4.9936,4.9976,5.0102,5.0137,5.017,5.0193,5.0156,5.0311,5.0325,5.0338,5.0385,5.0404,5.018,5.018,5.0179,5.0179,0,4.9504,4.9584,4.9649,4.9729,4.978,4.9867,4.9891,4.9941,4.9941,4.9963,5.007,5.0117,5.0195,5.0226,5.0227,5.0352,5.0333,5.0308,5.0254,5.0361,5.0405,5.0424,5.0186,5.0185,5.0183,5.0182,0,0,4.9665,4.975,4.9774,4.9808,4.9877,4.9939,5.0025,5.01,5.0142,5.02,5.027,5.0376,5.0352,5.0395,5.0401,5.0459,5.0567,5.0425,5.0427,5.0447,5.0704,5.0721,5.0742,5.0558,5.0562,5.0565,5.0698,0,4.9799,4.995,4.9963,5.0098,5.017,5.0157,5.0232,5.0281,5.0304,5.0368,5.0394,5.0467,5.0432,5.0457,5.0514,5.0542,5.0619,5.0533,5.0622,5.0625,5.0604,5.0766,5.0784,5.0908,5.0716,5.0719,5.0721,0,4.9976,5.0038,5.0181,5.0238,5.0268,5.0335,5.0404,5.0467,5.0522,5.0535,5.0583,5.0581,5.0667,5.0612,5.073,5.0672,5.0709,5.0729,5.0734,5.074,5.0677,5.0773,5.0948,5.0965,5.0749,5.0747,5.0745,0,5.0075,5.0195,5.0295,5.0326,5.0396,5.0442,5.0473,5.0525,5.0569,5.063,5.0658,5.0729,5.0767,5.0821,5.0837,5.0796,5.0954,5.0901,5.0964,5.0964,5.0996,5.0993,5.1176,5.1025,5.1025,5.1025,5.1024,0,5.0222,5.0309,5.034,5.0401,5.0497,5.0511,5.0606,5.0634,5.0681,5.0746,5.074,5.0801,5.082,5.0885,5.0898,5.0992,5.101,5.1022,5.1023,5.102,5.1018,5.1043,5.1033,5.103,5.1029,5.1028,5.1027,0,5.0347,5.0372,5.048,5.0537,5.0553,5.0622,5.067,5.0728,5.075,5.0833,5.0853,5.0888,5.0963,5.0985,5.1077,5.1085,5.1195,5.1191,5.1176,5.1175,5.1236,5.1229,5.1438,5.1465,5.13,5.1302,5.1303,0,5.0438,5.0504,5.0568,5.0612,5.0645,5.0715,5.076,5.0776,5.0822,5.089,5.094,5.1014,5.1074,5.1195,5.1228,5.1297,5.1292,5.1361,5.1302,5.1296,5.1289,5.1284,5.1289,5.1371,5.1372,5.1374,5.1375,0,5.0595,5.0603,5.0668,5.0738,5.0791,5.0847,5.09,5.0935,5.0959,5.1011,5.1088,5.1135,5.1227,5.13,5.137,5.1401,5.1391,5.1394,5.1411,5.1407,5.1394,5.1399,5.1202,5.1388,5.1387,5.1386,5.1385,5.1385,5.0703,5.0761,5.0814,5.0886,5.0928,5.0977,5.1034,5.1063,5.1128,5.1204,5.121,5.1292,5.1345,5.1437,5.1472,5.1536,5.1516,5.1542,5.1548,5.1554,5.1557,5.1387,5.1549,5.1549,5.1548,5.1548,5.1548,0,5.0857,5.089,5.0957,5.1031,5.1087,5.1075,5.1132,5.118,5.1252,5.1303,5.1362,5.1449,5.152,5.1558,5.1628,5.1672,5.1669,5.1689,5.1685,5.1691,5.1573,5.1549,5.169,5.169,5.169,5.169,5.169,5.169,5.0943,5.1038,5.1053,5.1169,5.1202,5.1283,5.1316,5.1361,5.1401,5.1499,5.1557,5.1582,5.1627,5.17,5.1764,5.1773,5.1798,5.182,5.1827,5.1715,5.17,5.1686,5.1663,5.1826,5.1826,5.1939,5.194,5.1941]},{"header":{"parameterUnit":"m.s-1","parameterCategory":1,"la1":30.2991,"la2":30.254,"lo1":-89.0895,"lo2":-89.0444,"dy":0.0017,"dx":0.0017,"nx":28,"ny":28,"refTime":"2025-05-20T21:00:00:Z","depth":0,"parameterNumber":3,"parameterNumberName":"V-component_of_WINDS"},"data":[0,0,0,0,0,0,0,0,0,0,0,0,0,0,0,0,0,0,0,0,0,0,0,0,0,0,0,0,0,0,0,0,0,0,0,0,0,0,0,0,0,0,0,0,0,0,0,0,0,0,0,0,0,0,0,0,0,0,3.8788,3.879,0,3.8958,3.896,3.8962,3.8965,3.8963,3.8961,3.8959,3.9133,3.9139,3.9146,0,0,0,0,0,0,0,0,0,0,0,0,0,3.8463,3.8469,3.8788,3.879,3.8792,3.8958,3.896,3.8963,3.8965,3.8963,3.896,3.8958,3.913,3.9138,3.9146,0,0,0,0,0,0,0,0,0,0,0,0,0,3.8616,3.8471,3.8787,3.8813,3.8817,3.8958,3.896,3.8963,3.8966,3.8963,3.8959,3.8956,3.9128,3.9137,3.9147,3.9273,0,0,3.9178,3.9182,0,0,0,0,0,0,0,0,3.8607,3.8628,3.8807,3.8812,3.8817,3.8937,3.891,3.9067,3.8967,3.8909,3.8958,3.8955,3.907,3.9085,3.9124,3.9281,3.9288,3.9178,3.9185,3.9189,3.9192,0,0,0,0,0,0,0,3.8597,3.862,3.8855,3.881,3.8816,3.8816,3.8834,3.894,3.9006,3.8914,3.8915,3.8935,3.9072,3.9114,3.9128,3.9291,3.9178,3.9187,3.9193,3.9197,3.9559,3.9563,0,0,0,0,0,0,3.8581,3.8612,3.885,3.886,3.8702,3.8824,3.8845,3.8902,3.9005,3.9017,3.8937,3.8934,3.9099,3.9116,3.9134,3.9287,3.9189,3.9198,3.9204,3.9556,3.956,3.9564,0,0,0,0,0,0,3.8574,3.8602,3.8843,3.8736,3.8767,3.8833,3.8897,3.8907,3.8949,3.9022,3.9034,3.8968,3.9097,3.912,3.9238,3.9293,3.9202,3.9212,3.9551,3.9557,3.9562,3.9595,0,0,0,0,0,0,3.8565,3.86,3.8648,3.8737,3.8773,3.8945,3.8901,3.8912,3.8966,3.8964,3.9054,3.9066,3.9096,3.9223,3.9248,3.9305,3.9219,3.9547,3.9554,3.956,3.959,3.9601,3.9611,0,0,0,0,0,3.8553,3.8651,3.8651,3.868,3.8835,3.8948,3.8968,3.9001,3.897,3.902,3.9067,3.9063,3.9283,3.9235,3.9263,3.9324,3.9543,3.9552,3.956,3.9585,3.9599,3.9611,0,0,0,0,0,0,3.8567,3.8663,3.8664,3.8794,3.8863,3.8948,3.9012,3.9015,3.9094,3.9088,3.9125,3.9145,3.9263,3.9306,3.9251,3.9451,3.941,3.9424,3.9419,3.9433,3.9444,3.9431,3.9228,0,0,0,0,0,3.8585,3.8669,3.8749,3.8856,3.889,3.8945,3.8995,3.9014,3.9087,3.9116,3.9172,3.9242,3.9327,3.9383,3.9465,3.9596,3.9615,3.9651,3.9662,3.9671,3.9683,3.9754,3.9771,3.9591,3.9591,3.9591,0,0,3.8624,3.8687,3.8738,3.886,3.8916,3.9001,3.897,3.9062,3.9126,3.913,3.9245,3.9289,3.937,3.9494,3.9552,3.9534,3.9736,3.9681,3.9687,3.9695,3.9764,3.9781,3.9797,3.9597,3.9596,3.9595,0,0,3.8738,3.8794,3.8889,3.8945,3.903,3.9065,3.9088,3.9173,3.9202,3.9318,3.9323,3.9399,3.9545,3.9602,3.9651,3.9785,3.9785,3.9811,3.9868,3.9937,3.9951,3.9964,4.0012,4.0029,3.9822,3.9823,3.9823,0,3.8775,3.8905,3.8937,3.903,3.9083,3.9091,3.9187,3.924,3.9347,3.9384,3.9361,3.9543,3.9599,3.9737,3.9769,3.9808,3.9835,3.9801,3.9947,3.996,3.9972,4.0018,4.0036,3.9825,3.9825,3.9825,3.9824,0,3.8946,3.9036,3.9102,3.9205,3.9266,3.936,3.9406,3.9464,3.9477,3.9515,3.9633,3.9699,3.9794,3.9828,3.9843,3.9969,3.9954,3.9939,3.9898,3.9991,4.0035,4.0053,3.9829,3.9828,3.9827,3.9827,0,0,3.9074,3.9193,3.9217,3.9264,3.9357,3.9427,3.9521,3.9615,3.9663,3.9736,3.9815,3.9938,3.9924,3.9979,3.9999,4.006,4.0162,4.0037,4.004,4.0058,4.0305,4.0316,4.0336,4.0162,4.0166,4.0168,4.0298,0,3.9198,3.9365,3.9397,3.9542,3.9625,3.9633,3.9715,3.9781,3.9818,3.9894,3.9935,4.0022,3.9997,4.003,4.009,4.0137,4.0212,4.0128,4.0236,4.0239,4.0216,4.0359,4.0371,4.049,4.0315,4.0318,4.032,0,3.9365,3.9442,3.9596,3.9678,3.9714,3.9787,3.9874,3.9947,4.0021,4.0044,4.0105,4.0118,4.0215,4.017,4.0304,4.0246,4.0292,4.0321,4.0326,4.0338,4.0285,4.0374,4.0529,4.0546,4.0347,4.0345,4.0343,0,3.9443,3.9585,3.9696,3.9735,3.9833,3.9884,3.9927,3.9999,4.0053,4.0129,4.0164,4.0251,4.0299,4.0365,4.0401,4.0365,4.0533,4.049,4.0554,4.0554,4.059,4.0587,4.0754,4.0619,4.0619,4.0618,4.0618,0,3.9578,3.9671,3.9732,3.9799,3.9904,3.9939,4.0042,4.0084,4.0148,4.0223,4.0236,4.0306,4.035,4.0427,4.0455,4.0562,4.0583,4.0604,4.0611,4.0603,4.0601,4.0634,4.0627,4.0623,4.0622,4.0621,4.062,0,3.9682,3.9727,3.9847,3.993,3.9953,4.0027,4.0097,4.0163,4.02,4.0296,4.0321,4.0379,4.047,4.0513,4.0625,4.0645,4.0766,4.0767,4.0741,4.0743,4.0805,4.0798,4.0999,4.1027,4.0874,4.0875,4.0876,0,3.9766,3.9838,3.9928,3.998,4.0025,4.0108,4.0163,4.02,4.0256,4.0346,4.0401,4.0493,4.0568,4.0713,4.0765,4.0851,4.0854,4.0919,4.0867,4.0858,4.0855,4.0851,4.0858,4.0928,4.093,4.0931,4.0932,0,3.9909,3.9927,4.0006,4.0093,4.0158,4.0228,4.0297,4.0338,4.0386,4.0449,4.0542,4.06,4.0715,4.0806,4.0895,4.0939,4.0944,4.0948,4.0967,4.096,4.0942,4.0953,4.0766,4.0943,4.0942,4.0941,4.094,4.094,4.0005,4.007,4.0143,4.0231,4.0286,4.035,4.0416,4.0461,4.054,4.0636,4.0653,4.0752,4.0824,4.0945,4.0992,4.107,4.1055,4.1083,4.109,4.1096,4.11,4.0929,4.1086,4.1086,4.1086,4.1085,4.1085,0,4.0149,4.0196,4.0276,4.0372,4.0441,4.0439,4.0514,4.0572,4.0659,4.0726,4.08,4.0906,4.0994,4.1053,4.1142,4.1193,4.1197,4.1215,4.1212,4.1222,4.1108,4.1083,4.121,4.121,4.121,4.121,4.121,4.121,4.0231,4.034,4.0367,4.0503,4.055,4.0647,4.069,4.0749,4.0803,4.0922,4.0995,4.1032,4.1096,4.119,4.127,4.1285,4.1317,4.1335,4.135,4.1243,4.123,4.1217,4.1193,4.1342,4.1342,4.1457,4.1458,4.1459]}]]